Location: Siena
(43.3170°N, 11.3500°E)
Time: 09:54:43
(UTC+01:00)

ISS - Visible Passes

Search period start: 22 January 2019 00:00
Search period end: 01 February 2019 00:00
Orbit: 404 x 410 km, 51.6° (Epoch: 23 January)

Date Brightness Start Highest point End Pass type
(mag) Time Alt. Az. Time Alt. Az. Time Alt. Az.
22 Jan -1.4 17:54:52 10° SE 17:55:33 10° SE 17:56:15 10° ESE visible
22 Jan -1.9 19:28:17 10° SW 19:30:01 28° SW 19:30:01 28° SW visible
23 Jan -3.3 18:37:09 10° SW 18:40:18 44° SE 18:41:04 36° E visible
24 Jan -2.3 17:46:19 10° SSW 17:49:04 25° SE 17:51:50 10° E visible
24 Jan -2.5 19:22:15 10° WSW 19:24:46 40° WNW 19:24:46 40° WNW visible
25 Jan -3.8 18:30:44 10° WSW 18:34:02 78° NNW 18:35:40 27° NE visible
25 Jan -0.3 20:08:16 10° WNW 20:08:23 11° WNW 20:08:23 11° WNW visible
26 Jan -2.2 19:16:29 10° W 19:19:13 28° NNW 19:19:13 28° NNW visible
27 Jan -2.8 18:24:45 10° W 18:27:53 39° NNW 18:29:59 18° NE visible
27 Jan -0.4 20:02:34 10° NW 20:02:42 11° NW 20:02:42 11° NW visible
28 Jan -1.9 19:10:47 10° WNW 19:13:24 21° N 19:13:25 21° N visible
29 Jan -2.2 18:18:58 10° WNW 18:21:47 25° NNW 18:24:07 13° NE visible
29 Jan -0.6 19:56:37 10° NW 19:56:49 11° NW 19:56:49 11° NW visible
30 Jan -1.8 19:04:58 10° NW 19:07:25 19° N 19:07:29 19° N visible
31 Jan -1.9 18:13:12 10° WNW 18:15:45 20° N 18:18:09 11° NE visible
31 Jan -0.8 19:50:21 10° NW 19:50:52 13° NW 19:50:52 13° NW visible
